KA8OAD-1 Weather Reports


time (UTC)temp
F
wind
direction
speed
knots
gust
knots
rain 1hr
in
rain 24hr
in
rain mn
in
humidity
%
barometer
mb
20260508085504 46 234 1.7 3.5 0.00 0.01 0.01 80 1010.8
20260508085005 46 231 0.9 3.5 0.00 0.01 0.01 80 1010.8
20260508084504 46 223 0.9 2.6 0.00 0.01 0.01 80 1010.8
20260508084004 46 223 0.9 2.6 0.00 0.01 0.01 80 1010.7
20260508083504 46 222 0.9 2.6 0.00 0.01 0.01 80 1010.8
20260508083004 46 222 1.7 3.5 0.00 0.01 0.01 80 1010.7
20260508082004 46 225 0.0 3.5 0.00 0.01 0.01 79 1010.9
20260508081504 46 243 0.9 4.3 0.00 0.01 0.01 79 1010.9
20260508081004 47 241 1.7 4.3 0.00 0.01 0.01 79 1010.9
20260508080504 47 236 0.9 4.3 0.01 0.01 0.01 79 1010.8
20260508080004 47 250 0.9 2.6 0.01 0.01 0.01 79 1010.8
20260508075004 47 242 1.7 3.5 0.01 0.01 0.01 79 1010.9
20260508074005 48 245 1.7 3.5 0.01 0.01 0.01 78 1010.9
20260508073503 48 238 2.6 4.3 0.01 0.01 0.01 78 1011.0
20260508073005 48 238 2.6 6.1 0.01 0.01 0.01 77 1011.0
20260508072005 48 243 2.6 7.0 0.01 0.01 0.01 76 1010.9
20260508071503 48 240 2.6 7.0 0.01 0.01 0.01 74 1011.0
20260508070503 48 232 4.3 11.3 0.00 0.00 0.00 71 1011.1
20260508065504 48 230 2.6 7.8 0.00 0.00 0.00 70 1011.0
20260508065005 47 234 1.7 7.0 0.00 0.00 0.00 70 1011.0
20260508064504 47 228 1.7 5.2 0.00 0.00 0.00 70 1011.1
20260508064005 47 225 1.7 5.2 0.00 0.00 0.00 70 1011.0
20260508063504 47 228 1.7 3.5 0.00 0.00 0.00 70 1011.1
20260508063005 47 240 0.9 3.5 0.00 0.00 0.00 70 1011.1
20260508062504 47 240 0.9 3.5 0.00 0.00 0.00 70 1011.2
20260508062004 47 0 0.0 0.0 0.00 0.00 0.00 70 1011.0
20260508061504 47 240 0.0 0.9 0.00 0.00 0.00 70 1011.1
20260508061004 47 239 0.0 1.7 0.00 0.00 0.00 70 1011.2
20260508060005 47 0 0.0 0.0 0.00 0.00 0.00 69 1011.2
20260508055504 47 0 0.0 0.0 0.00 0.00 0.00 69 1011.2
20260508055005 47 0 0.0 0.0 0.00 0.00 0.00 69 1011.2
20260508054503 48 0 0.0 0.0 0.00 0.00 0.00 69 1011.3
20260508054005 48 0 0.0 0.0 0.00 0.00 0.00 69 1011.4
20260508053503 48 0 0.0 0.0 0.00 0.00 0.00 68 1011.5
20260508053005 48 0 0.0 0.0 0.00 0.00 0.00 68 1011.5
20260508052503 48 0 0.0 0.0 0.00 0.00 0.00 68 1011.6
20260508052004 48 0 0.0 0.0 0.00 0.00 0.00 68 1011.6
20260508051504 48 0 0.0 0.0 0.00 0.00 0.00 68 1011.5
20260508051004 48 0 0.0 0.0 0.00 0.00 0.00 68 1011.7
20260508050504 48 0 0.0 0.0 0.00 0.00 0.00 67 1011.7
20260508050004 48 0 0.0 0.0 0.00 0.00 0.00 67 1011.8
20260508045504 48 0 0.0 0.0 0.00 0.00 0.00 67 1011.7
20260508045004 48 0 0.0 0.0 0.00 0.00 0.00 67 1011.7
20260508044504 48 0 0.0 0.0 0.00 0.00 0.00 67 1011.6
20260508044004 48 239 0.0 0.9 0.00 0.00 0.00 67 1011.6
20260508043504 48 239 0.9 2.6 0.00 0.00 0.00 67 1011.6
20260508043005 48 238 1.7 3.5 0.00 0.00 0.00 67 1011.7
20260508042503 48 237 0.9 3.5 0.00 0.00 0.00 67 1011.7
20260508042005 47 231 1.7 3.5 0.00 0.00 0.00 67 1011.7
20260508041504 47 228 2.6 3.5 0.00 0.00 0.00 67 1011.7
20260508040504 47 233 1.7 4.3 0.00 0.00 0.00 68 1011.8
20260508040008 46 234 1.7 3.5 0.00 0.00 0.00 68 1011.8
20260508035503 46 230 1.7 4.3 0.00 0.00 0.00 68 1011.8
20260508035005 46 235 2.6 4.3 0.00 0.00 0.00 69 1011.9
20260508034504 45 253 1.7 5.2 0.00 0.00 0.00 70 1011.9
20260508033504 45 257 0.9 3.5 0.00 0.00 0.00 70 1011.9
20260508033004 45 285 0.9 3.5 0.00 0.00 0.00 70 1011.8
20260508032504 45 305 0.0 1.7 0.00 0.00 0.00 69 1011.9
20260508032004 45 0 0.0 0.0 0.00 0.00 0.00 68 1011.8
20260508031504 45 0 0.0 0.0 0.00 0.00 0.00 68 1011.8
20260508031004 46 0 0.0 0.0 0.00 0.00 0.00 68 1011.8
20260508025504 46 321 0.0 0.9 0.00 0.00 0.00 68 1011.8
20260508025004 46 0 0.0 0.0 0.00 0.00 0.00 68 1011.8
20260508024504 46 0 0.0 0.0 0.00 0.00 0.00 68 1011.8
20260508024004 46 0 0.0 0.0 0.00 0.00 0.00 67 1011.8
20260508023503 46 0 0.0 0.0 0.00 0.00 0.00 67 1011.6
20260508022504 47 0 0.0 0.0 0.00 0.00 0.00 67 1011.6
20260508022004 47 0 0.0 0.0 0.00 0.00 0.00 67 1011.5
20260508021504 47 0 0.0 0.0 0.00 0.00 0.00 66 1011.6
20260508021004 47 0 0.0 0.0 0.00 0.00 0.00 65 1011.6
20260508015004 48 0 0.0 0.0 0.00 0.00 0.00 63 1011.5
20260508014504 48 0 0.0 0.0 0.00 0.00 0.00 62 1011.5
20260508014004 48 0 0.0 0.0 0.00 0.00 0.00 62 1011.5
20260508013504 49 0 0.0 0.0 0.00 0.00 0.00 61 1011.4
20260508013005 49 0 0.0 0.0 0.00 0.00 0.00 60 1011.4
20260508012004 50 0 0.0 0.0 0.00 0.00 0.00 57 1011.4
20260508011504 50 0 0.0 0.0 0.00 0.00 0.00 57 1011.3
20260508011004 50 0 0.0 0.0 0.00 0.00 0.00 56 1011.2
20260508010504 51 0 0.0 0.0 0.00 0.00 0.00 54 1011.2
20260508010004 51 0 0.0 0.0 0.00 0.00 0.00 53 1011.2
20260508005504 51 0 0.0 0.0 0.00 0.00 0.00 52 1011.2
20260508005004 52 0 0.0 0.0 0.00 0.00 0.00 50 1011.2
20260508004504 52 321 0.0 0.9 0.00 0.00 0.00 51 1011.2
20260508004004 52 321 0.0 3.5 0.00 0.00 0.00 50 1011.2
20260508003503 52 321 0.9 3.5 0.00 0.00 0.00 49 1011.0
20260508003005 52 319 0.9 4.3 0.00 0.00 0.00 48 1011.0
20260508002503 52 313 1.7 7.0 0.00 0.00 0.00 48 1011.0
20260508002005 53 316 1.7 7.0 0.00 0.00 0.00 47 1011.0
20260508001503 53 319 1.7 5.2 0.00 0.00 0.00 47 1011.0
20260508001005 53 288 1.7 5.2 0.00 0.00 0.00 47 1010.9
20260508000503 53 279 1.7 4.3 0.00 0.00 0.00 47 1010.8
20260508000005 53 298 2.6 4.3 0.00 0.00 0.00 47 1010.8
20260507235504 53 302 2.6 7.8 0.00 0.00 0.00 46 1010.7
20260507235005 53 307 3.5 9.6 0.00 0.00 0.00 45 1010.7
20260507234504 54 309 4.3 9.6 0.00 0.00 0.00 45 1010.7
20260507234004 54 306 4.3 9.6 0.00 0.00 0.00 45 1010.7
20260507233504 54 306 4.3 12.2 0.00 0.00 0.00 46 1010.6
20260507232504 54 311 3.5 9.6 0.00 0.00 0.00 46 1010.6
20260507231504 54 317 3.5 8.7 0.00 0.00 0.00 45 1010.6
20260507231004 54 305 2.6 11.3 0.00 0.00 0.00 46 1010.6
20260507230006 55 294 2.6 7.8 0.00 0.00 0.00 46 1010.7
20260507225503 55 304 3.5 7.8 0.00 0.00 0.00 47 1010.8
20260507225005 55 312 4.3 13.9 0.00 0.00 0.00 46 1010.8
20260507224504 55 310 4.3 13.9 0.00 0.00 0.00 46 1010.7
20260507224005 55 307 3.5 8.7 0.00 0.00 0.00 47 1010.6
20260507223503 55 301 2.6 6.1 0.00 0.00 0.00 48 1010.6
20260507223005 55 302 3.5 11.3 0.00 0.00 0.00 47 1010.7
20260507222503 55 307 4.3 11.3 0.00 0.00 0.00 46 1010.7
20260507222004 55 305 4.3 10.4 0.00 0.00 0.00 48 1010.7
20260507221504 55 317 4.3 10.4 0.00 0.00 0.00 48 1010.7
20260507220504 55 304 3.5 8.7 0.00 0.00 0.00 49 1010.7
20260507220004 56 306 3.5 9.6 0.00 0.00 0.00 49 1010.6
20260507215504 56 311 3.5 9.6 0.00 0.00 0.00 49 1010.6
20260507215004 56 309 4.3 14.8 0.00 0.00 0.00 50 1010.6
20260507214504 56 307 5.2 15.6 0.00 0.00 0.00 50 1010.6
20260507214004 56 313 4.3 15.6 0.00 0.00 0.00 49 1010.6
20260507212005 56 304 5.2 10.4 0.00 0.00 0.00 45 1010.2
20260507211005 57 313 4.3 10.4 0.00 0.00 0.00 45 1010.0
20260507210504 57 314 5.2 12.2 0.00 0.00 0.00 47 1010.0
20260507210005 57 301 4.3 12.2 0.00 0.00 0.00 44 1010.0
20260507205504 57 281 3.5 9.6 0.00 0.00 0.00 46 1010.0
20260507204504 58 304 3.5 11.3 0.00 0.00 0.00 44 1009.9
20260507204004 58 295 3.5 11.3 0.00 0.00 0.00 45 1009.9
20260507203504 58 291 3.5 9.6 0.00 0.00 0.00 46 1009.8
20260507203004 58 302 3.5 10.4 0.00 0.00 0.00 45 1009.8
20260507202503 58 307 3.5 10.4 0.00 0.00 0.00 44 1009.8
20260507202005 59 301 3.5 8.7 0.00 0.00 0.00 46 1009.7
20260507201503 59 305 4.3 12.2 0.00 0.00 0.00 43 1009.9
20260507201004 59 310 4.3 12.2 0.00 0.00 0.00 44 1009.8
20260507200504 59 314 3.5 7.8 0.00 0.00 0.00 46 1009.8
20260507195504 60 316 5.2 13.9 0.00 0.00 0.00 45 1009.8
20260507195004 60 303 4.3 13.9 0.00 0.00 0.00 42 1009.8
20260507193503 61 308 2.6 7.8 0.00 0.00 0.00 46 1010.0
20260507193005 61 274 3.5 7.8 0.00 0.00 0.00 42 1010.1
20260507192503 61 283 3.5 8.7 0.00 0.00 0.00 40 1010.0
20260507191503 62 310 4.3 10.4 0.00 0.00 0.00 42 1010.1
20260507191004 62 313 4.3 10.4 0.00 0.00 0.00 44 1010.1
20260507190005 61 249 3.5 7.0 0.00 0.00 0.00 45 1010.2
20260507185504 61 233 3.5 7.8 0.00 0.00 0.00 48 1010.1
20260507185004 60 258 4.3 11.3 0.00 0.00 0.00 43 1010.1
20260507184504 60 282 4.3 12.2 0.00 0.00 0.00 45 1010.2
20260507183504 60 245 3.5 10.4 0.00 0.00 0.00 39 1010.2
20260507183004 61 233 3.5 10.4 0.00 0.00 0.00 41 1010.3
20260507182504 61 228 3.5 8.7 0.00 0.00 0.00 40 1010.1
20260507182004 61 242 3.5 8.7 0.00 0.00 0.00 40 1010.2
20260507181504 61 267 3.5 7.0 0.00 0.00 0.00 42 1010.2
20260507181004 61 269 3.5 7.0 0.00 0.00 0.00 41 1010.2
20260507180504 62 257 3.5 7.0 0.00 0.00 0.00 42 1010.2
20260507180005 62 255 3.5 9.6 0.00 0.00 0.00 41 1010.2
20260507175504 62 257 3.5 9.6 0.00 0.00 0.00 43 1010.4
20260507174004 61 276 4.3 11.3 0.00 0.00 0.00 44 1010.3
20260507173504 61 286 3.5 11.3 0.00 0.00 0.00 45 1010.4
20260507173005 61 261 3.5 7.8 0.00 0.00 0.00 44 1010.4
20260507171005 60 251 1.7 6.1 0.00 0.00 0.00 42 1010.5
20260507170504 60 271 2.6 8.7 0.00 0.00 0.00 48 1010.5
20260507170005 60 287 2.6 8.7 0.00 0.00 0.00 45 1010.6
20260507165504 60 309 2.6 7.0 0.00 0.00 0.00 43 1010.5
20260507165004 61 295 2.6 8.7 0.00 0.00 0.00 43 1010.5
20260507164004 61 294 2.6 7.8 0.00 0.00 0.00 43 1010.6
20260507163504 61 311 3.5 7.8 0.00 0.00 0.00 40 1010.6
20260507163004 60 311 2.6 7.8 0.00 0.00 0.00 45 1010.6
20260507162504 60 303 2.6 7.8 0.00 0.00 0.00 45 1010.6
20260507162004 60 305 2.6 7.8 0.00 0.00 0.00 44 1010.6
20260507161504 60 311 3.5 10.4 0.00 0.00 0.00 42 1010.6
20260507161004 60 306 3.5 10.4 0.00 0.00 0.00 44 1010.6
20260507160504 60 287 3.5 8.7 0.00 0.00 0.00 46 1010.6
20260507155504 60 278 2.6 7.0 0.00 0.00 0.00 45 1010.6
20260507155004 60 299 2.6 7.0 0.00 0.00 0.00 47 1010.6
20260507154504 60 316 3.5 12.2 0.00 0.00 0.00 45 1010.8
20260507154005 60 294 3.5 12.2 0.00 0.00 0.00 45 1010.7
20260507153504 59 229 1.7 7.8 0.00 0.00 0.00 45 1010.7
20260507153004 59 279 2.6 8.7 0.00 0.00 0.00 45 1010.7
20260507152505 58 288 2.6 8.7 0.00 0.00 0.00 49 1010.7
20260507151504 58 258 2.6 5.2 0.00 0.00 0.00 47 1010.8
20260507151004 58 268 2.6 5.2 0.00 0.00 0.00 53 1010.8
20260507150504 58 256 2.6 7.0 0.00 0.00 0.00 52 1010.7
20260507150006 58 282 2.6 7.0 0.00 0.00 0.00 51 1010.8
20260507145504 57 293 1.7 7.0 0.00 0.00 0.00 53 1010.9
20260507145004 56 302 1.7 5.2 0.00 0.00 0.00 55 1010.9
20260507144503 55 289 1.7 5.2 0.00 0.00 0.00 60 1010.9
20260507144005 54 270 1.7 3.5 0.00 0.00 0.00 62 1010.8
20260507143504 54 264 1.7 3.5 0.00 0.00 0.00 60 1010.9
20260507143005 53 301 1.7 4.3 0.00 0.00 0.00 62 1010.9
20260507142504 52 316 2.6 5.2 0.00 0.00 0.00 61 1010.9
20260507142005 52 306 2.6 5.2 0.00 0.00 0.00 64 1011.0
20260507141503 52 287 1.7 4.3 0.00 0.00 0.00 66 1011.1
20260507140504 51 299 1.7 4.3 0.00 0.00 0.00 69 1011.2
20260507135504 50 264 1.7 2.6 0.00 0.00 0.00 73 1011.3
20260507135005 50 298 1.7 4.3 0.00 0.00 0.00 75 1011.3
20260507134504 50 298 1.7 4.3 0.00 0.00 0.00 76 1011.3
20260507134004 49 267 1.7 4.3 0.00 0.00 0.00 76 1011.4
20260507133503 49 242 1.7 4.3 0.00 0.00 0.00 76 1011.4
20260507132504 48 273 1.7 7.8 0.00 0.00 0.00 78 1011.5
20260507132005 48 282 2.6 7.8 0.00 0.00 0.00 79 1011.5
20260507131503 47 300 1.7 4.3 0.00 0.00 0.00 81 1011.5
20260507130504 46 241 0.0 1.7 0.00 0.00 0.00 84 1011.4
20260507130005 46 239 0.9 2.6 0.00 0.00 0.00 85 1011.4
20260507125504 46 239 0.9 2.6 0.00 0.00 0.00 86 1011.5
20260507125004 45 242 0.9 3.5 0.00 0.00 0.00 87 1011.5
20260507124504 45 250 1.7 5.2 0.00 0.00 0.00 88 1011.5
20260507124004 45 251 1.7 5.2 0.00 0.00 0.00 89 1011.4
20260507123504 44 252 0.9 3.5 0.00 0.00 0.00 90 1011.5
20260507123004 44 264 0.9 2.6 0.00 0.00 0.00 90 1011.5
20260507122504 43 264 0.0 2.6 0.00 0.00 0.00 90 1011.4
20260507122005 43 264 0.0 0.9 0.00 0.00 0.00 90 1011.4
20260507121504 42 264 0.9 2.6 0.00 0.00 0.00 91 1011.4
20260507121005 42 264 0.9 2.6 0.00 0.00 0.00 91 1011.4
20260507120503 42 316 0.0 1.7 0.00 0.00 0.00 91 1011.3
20260507115504 41 324 0.0 1.7 0.00 0.00 0.00 91 1011.4
20260507114504 40 330 0.0 2.6 0.00 0.00 0.00 90 1011.5
20260507114005 40 0 0.0 0.0 0.00 0.00 0.00 90 1011.5
20260507113504 40 0 0.0 0.0 0.00 0.00 0.00 90 1011.5
20260507113004 39 0 0.0 0.0 0.00 0.00 0.00 90 1011.5
20260507112504 39 0 0.0 0.0 0.00 0.00 0.00 89 1011.3
20260507112004 39 0 0.0 0.0 0.00 0.00 0.00 89 1011.2
20260507111504 39 0 0.0 0.0 0.00 0.00 0.00 89 1011.3
20260507111004 39 0 0.0 0.0 0.00 0.00 0.00 89 1011.3
20260507110504 39 0 0.0 0.0 0.00 0.00 0.00 89 1011.3
20260507110005 39 0 0.0 0.0 0.00 0.00 0.00 89 1011.2
20260507105504 39 0 0.0 0.0 0.00 0.00 0.00 89 1011.1
20260507105004 39 0 0.0 0.0 0.00 0.00 0.00 89 1011.0
20260507104504 39 0 0.0 0.0 0.00 0.00 0.00 89 1011.1
20260507104004 39 0 0.0 0.0 0.00 0.00 0.00 89 1010.9
20260507103005 39 0 0.0 0.0 0.00 0.00 0.00 89 1010.9
20260507102503 39 0 0.0 0.0 0.00 0.00 0.00 89 1011.0
20260507102007 39 0 0.0 0.0 0.00 0.00 0.00 89 1010.9
20260507101503 39 0 0.0 0.0 0.00 0.00 0.00 89 1010.9
20260507101005 39 0 0.0 0.0 0.00 0.00 0.00 88 1011.0
20260507100503 39 0 0.0 0.0 0.00 0.00 0.00 88 1011.0
20260507100005 39 0 0.0 0.0 0.00 0.00 0.00 89 1011.0
20260507095504 39 0 0.0 0.0 0.00 0.01 0.00 88 1010.9
20260507095004 39 0 0.0 0.0 0.00 0.01 0.00 88 1010.9
20260507094504 39 0 0.0 0.0 0.00 0.02 0.00 88 1010.9
20260507093504 39 0 0.0 0.0 0.00 0.02 0.00 88 1010.9
20260507093004 39 0 0.0 0.0 0.00 0.02 0.00 88 1011.0
20260507092504 39 0 0.0 0.0 0.00 0.03 0.00 88 1011.0
20260507092005 39 0 0.0 0.0 0.00 0.03 0.00 88 1011.1
20260507091004 39 0 0.0 0.0 0.00 0.04 0.00 88 1011.0
20260507090503 39 0 0.0 0.0 0.00 0.05 0.00 88 1011.0
20260507090005 39 0 0.0 0.0 0.00 0.05 0.00 87 1011.1